EW8125 Weather Reports


time (UTC)temp
C
wind
direction
speed
KPH
gust
KPH
rain 1hr
cm
rain 24hr
cm
rain mn
cm
humidity
%
barometer
mb
20260507171203 13 184 0.0 4.8 0.00 0.00 0.00 70 1013.6
20260507170903 13 156 0.0 4.8 0.00 0.00 0.00 70 1013.6
20260507170603 13 41 0.0 8.0 0.00 0.00 0.00 71 1013.7
20260507170513 13 39 0.0 8.0 0.00 0.00 0.00 71 1013.7
20260507170003 13 73 1.6 8.0 0.00 0.00 0.00 70 1013.7
20260507165703 13 143 0.0 4.8 0.00 0.00 0.00 70 1013.7
20260507165403 13 156 1.6 4.8 0.00 0.00 0.00 69 1013.7
20260507165103 13 198 1.6 8.0 0.00 0.00 0.00 69 1013.7
20260507164803 13 189 1.6 8.0 0.00 0.00 0.00 69 1013.7
20260507164503 13 180 0.0 8.0 0.00 0.00 0.00 68 1013.7
20260507164204 14 170 0.0 6.4 0.00 0.00 0.00 70 1013.7
20260507163903 14 180 0.0 6.4 0.00 0.00 0.00 67 1013.7
20260507163603 14 213 0.0 4.8 0.00 0.00 0.00 69 1013.7
20260507163303 14 110 0.0 8.0 0.00 0.00 0.00 69 1013.6
20260507163003 14 84 1.6 8.0 0.00 0.00 0.00 68 1013.6
20260507162703 14 105 1.6 8.0 0.00 0.00 0.00 67 1013.6
20260507162403 14 158 1.6 8.0 0.00 0.00 0.00 65 1013.6
20260507162104 15 211 1.6 14.5 0.00 0.00 0.00 66 1013.6
20260507161803 15 209 1.6 14.5 0.00 0.00 0.00 64 1013.7
20260507161504 15 210 1.6 14.5 0.00 0.00 0.00 65 1013.7
20260507161414 15 211 1.6 14.5 0.00 0.00 0.00 63 1013.7
20260507160903 15 210 1.6 11.3 0.00 0.00 0.00 64 1013.6
20260507160603 15 208 3.2 12.9 0.00 0.00 0.00 64 1013.7
20260507160303 15 199 3.2 19.3 0.00 0.00 0.00 64 1013.7
20260507160003 15 199 3.2 19.3 0.00 0.00 0.00 65 1013.6
20260507155703 15 200 3.2 19.3 0.00 0.00 0.00 65 1013.6
20260507155403 15 205 3.2 12.9 0.00 0.00 0.00 66 1013.7
20260507155103 15 209 1.6 12.9 0.00 0.00 0.00 66 1013.7
20260507154803 15 204 1.6 9.7 0.00 0.00 0.00 65 1013.6
20260507154503 15 200 1.6 8.0 0.00 0.00 0.00 65 1013.7
20260507154413 15 198 1.6 8.0 0.00 0.00 0.00 67 1013.7
20260507153903 15 196 1.6 8.0 0.00 0.00 0.00 65 1013.7
20260507153603 15 223 0.0 6.4 0.00 0.00 0.00 67 1013.7
20260507153303 15 218 0.0 6.4 0.00 0.00 0.00 66 1013.7
20260507153215 15 242 0.0 6.4 0.00 0.00 0.00 66 1013.7
20260507152703 14 40 0.0 1.6 0.00 0.00 0.00 66 1013.7
20260507152403 14 52 0.0 3.2 0.00 0.00 0.00 67 1013.8
20260507152103 14 56 0.0 3.2 0.00 0.00 0.00 66 1013.7
20260507151804 14 61 0.0 3.2 0.00 0.00 0.00 66 1013.8
20260507151503 14 157 1.6 12.9 0.00 0.00 0.00 65 1013.9
20260507151203 15 199 0.0 12.9 0.00 0.00 0.00 65 1013.8
20260507151113 15 203 0.0 12.9 0.00 0.00 0.00 65 1013.7
20260507150603 15 191 0.0 12.9 0.00 0.00 0.00 66 1013.8
20260507150303 15 220 0.0 6.4 0.00 0.00 0.00 65 1013.7
20260507150213 15 221 0.0 6.4 0.00 0.00 0.00 64 1013.7
20260507145912 15 217 1.6 9.7 0.00 0.00 0.00 64 1013.8
20260507145403 15 214 0.0 9.7 0.00 0.00 0.00 63 1013.8
20260507145103 15 215 0.0 9.7 0.00 0.00 0.00 64 1013.8
20260507145016 15 223 0.0 3.2 0.00 0.00 0.00 65 1013.8
20260507144503 15 211 0.0 3.2 0.00 0.00 0.00 67 1013.8
20260507144203 14 238 0.0 11.3 0.00 0.00 0.00 69 1013.7
20260507144113 14 233 1.6 12.9 0.00 0.00 0.00 69 1013.8
20260507143603 14 217 1.6 12.9 0.00 0.00 0.00 68 1013.9
20260507143512 14 217 1.6 12.9 0.00 0.00 0.00 69 1013.9
20260507143212 14 200 1.6 12.9 0.00 0.00 0.00 66 1013.9
20260507142703 14 197 1.6 9.7 0.00 0.00 0.00 68 1014.0
20260507142403 13 215 1.6 9.7 0.00 0.00 0.00 69 1014.1
20260507142103 13 215 1.6 9.7 0.00 0.00 0.00 67 1014.1
20260507141803 13 210 1.6 9.7 0.00 0.00 0.00 68 1014.2
20260507141503 13 184 1.6 9.7 0.00 0.00 0.00 70 1014.2
20260507141203 13 155 1.6 9.7 0.00 0.00 0.00 69 1014.1
20260507140903 13 98 1.6 9.7 0.00 0.00 0.00 68 1014.2
20260507140604 13 49 0.0 6.4 0.00 0.00 0.00 67 1014.2
20260507140303 13 57 0.0 6.4 0.00 0.00 0.00 68 1014.2
20260507140214 13 58 0.0 6.4 0.00 0.00 0.00 69 1014.2
20260507135914 13 64 0.0 6.4 0.00 0.00 0.00 67 1014.2
20260507135614 13 66 0.0 6.4 0.00 0.00 0.00 67 1014.2
20260507135103 13 55 1.6 9.7 0.00 0.00 0.00 67 1014.2
20260507134803 13 45 1.6 9.7 0.00 0.00 0.00 66 1014.1
20260507134503 14 40 0.0 9.7 0.00 0.00 0.00 67 1014.2
20260507134203 14 40 0.0 6.4 0.00 0.00 0.00 68 1014.1
20260507134112 14 27 0.0 6.4 0.00 0.00 0.00 67 1014.2
20260507133812 14 213 1.6 6.4 0.00 0.00 0.00 65 1014.1
20260507133303 14 169 1.6 6.4 0.00 0.00 0.00 63 1014.2
20260507133003 14 162 1.6 6.4 0.00 0.00 0.00 63 1014.2
20260507132703 15 106 0.0 4.8 0.00 0.00 0.00 63 1014.2
20260507132403 15 97 0.0 4.8 0.00 0.00 0.00 67 1014.2
20260507132103 14 189 0.0 3.2 0.00 0.00 0.00 65 1014.3
20260507131803 14 188 0.0 6.4 0.00 0.00 0.00 65 1014.2
20260507131503 14 200 0.0 6.4 0.00 0.00 0.00 67 1014.3
20260507131203 13 200 0.0 6.4 0.00 0.00 0.00 67 1014.3
20260507130903 13 220 0.0 9.7 0.00 0.00 0.00 67 1014.4
20260507130812 13 213 0.0 9.7 0.00 0.00 0.00 67 1014.4
20260507130303 13 210 1.6 9.7 0.00 0.00 0.00 65 1014.3
20260507130003 14 202 1.6 6.4 0.00 0.00 0.00 64 1014.5
20260507125703 14 198 0.0 6.4 0.00 0.00 0.00 66 1014.3
20260507125403 14 197 0.0 6.4 0.00 0.00 0.00 66 1014.3
20260507125103 14 218 0.0 6.4 0.00 0.00 0.00 66 1014.4
20260507124803 14 218 0.0 8.0 0.00 0.00 0.00 64 1014.3
20260507124503 14 217 0.0 8.0 0.00 0.00 0.00 64 1014.3
20260507124203 14 217 0.0 8.0 0.00 0.00 0.00 63 1014.3
20260507123903 14 201 1.6 8.0 0.00 0.00 0.00 65 1014.4
20260507123814 14 197 0.0 8.0 0.00 0.00 0.00 65 1014.4
20260507123303 14 187 1.6 8.0 0.00 0.00 0.00 64 1014.4
20260507123003 14 187 1.6 9.7 0.00 0.00 0.00 62 1014.4
20260507122705 14 185 1.6 9.7 0.00 0.00 0.00 62 1014.4
20260507122403 14 182 1.6 9.7 0.00 0.00 0.00 60 1014.4
20260507122313 14 186 1.6 9.7 0.00 0.00 0.00 60 1014.4
20260507121803 14 229 0.0 3.2 0.00 0.00 0.00 66 1014.4
20260507121503 14 208 1.6 12.9 0.00 0.00 0.00 65 1014.3
20260507121203 14 218 1.6 12.9 0.00 0.00 0.00 62 1014.3
20260507120903 14 219 1.6 12.9 0.00 0.00 0.00 61 1014.5
20260507120603 14 274 0.0 6.4 0.00 0.00 0.00 61 1014.4
20260507120303 14 282 0.0 6.4 0.00 0.00 0.00 65 1014.4
20260507120003 14 276 0.0 6.4 0.00 0.00 0.00 62 1014.4
20260507115913 14 276 0.0 6.4 0.00 0.00 0.00 65 1014.4
20260507115405 14 69 0.0 1.6 0.00 0.00 0.00 67 1014.5
20260507115103 14 67 0.0 1.6 0.00 0.00 0.00 69 1014.6
20260507114803 14 67 0.0 1.6 0.00 0.00 0.00 69 1014.5
20260507114504 14 64 0.0 3.2 0.00 0.00 0.00 68 1014.5
20260507114203 13 64 0.0 3.2 0.00 0.00 0.00 70 1014.6
20260507113903 13 64 0.0 3.2 0.00 0.00 0.00 68 1014.6
20260507113603 13 66 0.0 3.2 0.00 0.00 0.00 68 1014.5
20260507113304 14 67 0.0 1.6 0.00 0.00 0.00 67 1014.6
20260507113003 14 67 0.0 3.2 0.00 0.00 0.00 67 1014.5
20260507112703 15 67 0.0 3.2 0.00 0.00 0.00 66 1014.5
20260507112403 15 67 0.0 3.2 0.00 0.00 0.00 64 1014.6
20260507112312 15 67 0.0 3.2 0.00 0.00 0.00 64 1014.6
20260507111803 15 31 0.0 1.6 0.00 0.00 0.00 65 1014.5
20260507111714 15 47 0.0 1.6 0.00 0.00 0.00 64 1014.6
20260507111203 15 70 0.0 3.2 0.00 0.00 0.00 65 1014.7
20260507110903 15 69 1.6 6.4 0.00 0.00 0.00 68 1014.7
20260507110603 15 73 1.6 6.4 0.00 0.00 0.00 66 1014.7
20260507110303 15 70 1.6 6.4 0.00 0.00 0.00 69 1014.8
20260507110003 15 72 1.6 6.4 0.00 0.00 0.00 69 1014.9
20260507105704 15 71 1.6 6.4 0.00 0.00 0.00 68 1014.9
20260507105403 15 80 1.6 4.8 0.00 0.00 0.00 68 1014.9
20260507105103 15 78 1.6 4.8 0.00 0.00 0.00 68 1015.0
20260507104803 15 90 1.6 4.8 0.00 0.00 0.00 68 1015.0
20260507104503 15 90 1.6 4.8 0.00 0.00 0.00 71 1015.1
20260507104414 15 90 1.6 4.8 0.00 0.00 0.00 71 1015.1
20260507103903 14 88 1.6 4.8 0.00 0.00 0.00 70 1015.1
20260507103603 14 70 1.6 6.4 0.00 0.00 0.00 74 1015.1
20260507103303 14 69 1.6 6.4 0.00 0.00 0.00 73 1015.1
20260507103003 14 70 1.6 6.4 0.00 0.00 0.00 71 1015.1
20260507102703 14 61 0.0 6.4 0.00 0.00 0.00 73 1015.1
20260507102403 13 60 1.6 4.8 0.00 0.00 0.00 73 1015.1
20260507102103 13 54 1.6 4.8 0.00 0.00 0.00 74 1015.1
20260507101803 13 57 1.6 8.0 0.00 0.00 0.00 77 1015.1
20260507101503 13 64 1.6 8.0 0.00 0.00 0.00 76 1015.1
20260507101413 13 65 1.6 8.0 0.00 0.00 0.00 77 1015.1
20260507100903 12 69 1.6 8.0 0.00 0.00 0.00 76 1015.1
20260507100603 12 71 0.0 4.8 0.00 0.00 0.00 77 1015.2
20260507100303 12 73 0.0 4.8 0.00 0.00 0.00 79 1015.2
20260507100003 11 70 0.0 4.8 0.00 0.00 0.00 79 1015.3
20260507095703 11 68 1.6 4.8 0.00 0.00 0.00 81 1015.3
20260507095612 11 67 1.6 4.8 0.00 0.00 0.00 81 1015.3
20260507095103 11 65 0.0 4.8 0.00 0.00 0.00 81 1015.3
20260507094803 10 72 0.0 4.8 0.00 0.00 0.00 82 1015.3
20260507094714 10 71 0.0 4.8 0.00 0.00 0.00 82 1015.3
20260507094203 10 86 0.0 1.6 0.00 0.00 0.00 83 1015.3
20260507093903 10 104 0.0 1.6 0.00 0.00 0.00 83 1015.3
20260507093603 10 104 0.0 1.6 0.00 0.00 0.00 83 1015.2
20260507093303 10 84 0.0 3.2 0.00 0.00 0.00 84 1015.2
20260507093003 10 82 0.0 3.2 0.00 0.00 0.00 83 1015.3
20260507092704 9 67 0.0 3.2 0.00 0.00 0.00 84 1015.3
20260507092403 9 68 0.0 3.2 0.00 0.00 0.00 84 1015.3
20260507092103 9 68 0.0 3.2 0.00 0.00 0.00 84 1015.3
20260507091803 9 68 0.0 3.2 0.00 0.00 0.00 84 1015.3
20260507091503 9 74 0.0 1.6 0.00 0.00 0.00 85 1015.3
20260507091413 9 75 0.0 1.6 0.00 0.00 0.00 85 1015.3
20260507091113 9 72 0.0 1.6 0.00 0.00 0.00 85 1015.3
20260507090603 9 68 0.0 3.2 0.00 0.00 0.00 85 1015.2
20260507090303 8 67 0.0 3.2 0.00 0.00 0.00 85 1015.2
20260507090004 8 67 0.0 3.2 0.00 0.00 0.00 84 1015.3
20260507085703 8 65 0.0 3.2 0.00 0.00 0.00 84 1015.4
20260507085403 8 55 0.0 1.6 0.00 0.00 0.00 85 1015.3
20260507085103 8 55 0.0 1.6 0.00 0.00 0.00 84 1015.4
20260507084803 8 55 0.0 1.6 0.00 0.00 0.00 85 1015.4
20260507084503 8 55 0.0 1.6 0.00 0.00 0.00 86 1015.4
20260507084203 8 55 0.0 1.6 0.00 0.00 0.00 86 1015.4
20260507083903 8 55 0.0 1.6 0.00 0.00 0.00 85 1015.5
20260507083603 8 55 0.0 1.6 0.00 0.00 0.00 85 1015.5
20260507083303 8 55 0.0 1.6 0.00 0.00 0.00 86 1015.6
20260507083003 8 55 0.0 1.6 0.00 0.00 0.00 86 1015.6
20260507082914 8 55 0.0 1.6 0.00 0.00 0.00 86 1015.6
20260507082403 8 57 0.0 3.2 0.00 0.00 0.00 87 1015.5
20260507082103 8 59 0.0 3.2 0.00 0.00 0.00 87 1015.4
20260507081803 8 64 0.0 1.6 0.00 0.00 0.00 87 1015.5
20260507081504 7 64 0.0 1.6 0.00 0.00 0.00 87 1015.4
20260507081203 7 64 0.0 1.6 0.00 0.00 0.00 87 1015.5
20260507080903 7 64 0.0 1.6 0.00 0.00 0.00 87 1015.5
20260507080812 7 64 0.0 1.6 0.00 0.00 0.00 87 1015.5
20260507080514 7 64 0.0 1.6 0.00 0.00 0.00 87 1015.4
20260507080003 7 64 0.0 1.6 0.00 0.00 0.00 87 1015.4
20260507075704 7 64 0.0 1.6 0.00 0.00 0.00 87 1015.4
20260507075404 7 64 0.0 1.6 0.00 0.00 0.00 87 1015.4
20260507075313 7 63 0.0 1.6 0.00 0.00 0.00 87 1015.4
20260507074803 7 0 0.0 0.0 0.00 0.00 0.00 87 1015.4
20260507074503 7 0 0.0 0.0 0.00 0.00 0.00 87 1015.3
20260507074413 7 0 0.0 0.0 0.00 0.00 0.00 87 1015.4
20260507073903 7 70 0.0 1.6 0.00 0.00 0.00 87 1015.4
20260507073604 7 70 0.0 1.6 0.00 0.00 0.00 88 1015.4
20260507073514 7 70 0.0 1.6 0.00 0.00 0.00 88 1015.4
20260507073003 7 70 0.0 1.6 0.00 0.00 0.00 88 1015.4
20260507072703 7 0 0.0 0.0 0.00 0.00 0.00 88 1015.4
20260507072403 7 70 0.0 1.6 0.00 0.00 0.00 88 1015.3
20260507072103 7 70 0.0 1.6 0.00 0.00 0.00 88 1015.3
20260507071803 7 70 0.0 1.6 0.00 0.00 0.00 88 1015.3
20260507071504 7 70 0.0 1.6 0.00 0.00 0.00 89 1015.2
20260507071203 7 70 0.0 1.6 0.00 0.00 0.00 89 1015.2
20260507070903 7 0 0.0 0.0 0.00 0.00 0.00 89 1015.2
20260507070814 7 0 0.0 0.0 0.00 0.00 0.00 89 1015.2
20260507070303 7 70 0.0 1.6 0.00 0.00 0.00 89 1015.2
20260507070004 7 70 0.0 1.6 0.00 0.00 0.00 89 1015.2
20260507065703 7 70 0.0 1.6 0.00 0.00 0.00 89 1015.2
20260507065403 7 0 0.0 0.0 0.00 0.00 0.00 89 1015.1
20260507065103 7 0 0.0 0.0 0.00 0.00 0.00 89 1015.1
20260507064803 7 0 0.0 0.0 0.00 0.00 0.00 89 1015.0
20260507064503 7 0 0.0 0.0 0.00 0.00 0.00 89 1015.0
20260507064203 7 0 0.0 0.0 0.00 0.00 0.00 89 1015.0
20260507063903 7 0 0.0 0.0 0.00 0.00 0.00 89 1015.1
20260507063603 7 0 0.0 0.0 0.00 0.00 0.00 90 1015.0
20260507063303 6 0 0.0 0.0 0.00 0.00 0.00 90 1015.0
20260507063003 6 0 0.0 0.0 0.00 0.00 0.00 90 1015.0
20260507062913 6 0 0.0 0.0 0.00 0.00 0.00 90 1015.0
20260507062403 6 0 0.0 0.0 0.00 0.00 0.00 90 1015.0
20260507062103 6 0 0.0 0.0 0.00 0.00 0.00 90 1015.0
20260507061804 6 0 0.0 0.0 0.00 0.00 0.00 90 1015.0
20260507061503 6 0 0.0 0.0 0.00 0.00 0.00 90 1015.0
20260507061203 6 0 0.0 0.0 0.00 0.00 0.00 90 1015.0
20260507060904 6 0 0.0 0.0 0.00 0.00 0.00 90 1015.0
20260507060603 6 0 0.0 0.0 0.00 0.00 0.00 90 1015.0
20260507060303 6 0 0.0 0.0 0.00 0.00 0.00 90 1014.9
20260507060003 6 0 0.0 0.0 0.00 0.00 0.00 90 1015.0
20260507055703 6 0 0.0 0.0 0.00 0.00 0.00 90 1014.9
20260507055403 6 0 0.0 0.0 0.00 0.00 0.00 90 1014.9
20260507055103 6 0 0.0 0.0 0.00 0.00 0.00 90 1014.9
20260507054803 6 0 0.0 0.0 0.00 0.00 0.00 90 1015.0
20260507054503 6 0 0.0 0.0 0.00 0.00 0.00 90 1014.9
20260507054203 6 0 0.0 0.0 0.00 0.00 0.00 90 1015.0
20260507053903 6 0 0.0 0.0 0.00 0.00 0.00 90 1014.9
20260507053603 6 0 0.0 0.0 0.00 0.00 0.00 90 1014.9
20260507053303 6 0 0.0 0.0 0.00 0.00 0.00 90 1014.9
20260507053213 6 0 0.0 0.0 0.00 0.00 0.00 90 1014.9
20260507052703 6 0 0.0 0.0 0.00 0.00 0.00 90 1014.8
20260507052403 6 0 0.0 0.0 0.00 0.00 0.00 90 1014.9
20260507052104 6 0 0.0 0.0 0.00 0.00 0.00 90 1014.9
20260507051803 6 0 0.0 0.0 0.00 0.00 0.00 90 1014.9
20260507051503 6 0 0.0 0.0 0.00 0.00 0.00 90 1014.8
20260507051203 6 0 0.0 0.0 0.00 0.00 0.00 90 1014.9
20260507050903 6 0 0.0 0.0 0.00 0.00 0.00 90 1014.8
20260507050603 6 0 0.0 0.0 0.00 0.00 0.00 90 1014.8
20260507050303 6 0 0.0 0.0 0.00 0.00 0.00 90 1014.8
20260507050003 6 0 0.0 0.0 0.00 0.00 0.00 90 1014.8
20260507045703 6 0 0.0 0.0 0.00 0.00 0.00 90 1014.8
20260507045403 6 0 0.0 0.0 0.00 0.00 0.00 90 1014.8
20260507045103 6 0 0.0 0.0 0.00 0.00 0.00 90 1014.8
20260507044803 6 0 0.0 0.0 0.00 0.00 0.00 90 1014.8
20260507044503 6 0 0.0 0.0 0.00 0.00 0.00 90 1014.8
20260507044203 6 0 0.0 0.0 0.00 0.00 0.00 90 1014.8
20260507043903 6 0 0.0 0.0 0.00 0.00 0.00 90 1014.8
20260507043815 6 0 0.0 0.0 0.00 0.00 0.00 90 1014.7
20260507043303 6 0 0.0 0.0 0.00 0.00 0.00 89 1014.7
20260507043003 6 0 0.0 0.0 0.00 0.00 0.00 90 1014.7
20260507042703 6 0 0.0 0.0 0.00 0.00 0.00 90 1014.6
20260507042403 6 0 0.0 0.0 0.00 0.00 0.00 90 1014.6
20260507042103 6 0 0.0 0.0 0.00 0.00 0.00 90 1014.6
20260507042014 6 0 0.0 0.0 0.00 0.00 0.00 90 1014.6
20260507041503 6 0 0.0 0.0 0.00 0.00 0.00 90 1014.5
20260507041203 6 0 0.0 0.0 0.00 0.00 0.00 90 1014.5
20260507040903 6 0 0.0 0.0 0.00 0.00 0.00 90 1014.6
20260507040603 6 0 0.0 0.0 0.00 0.00 0.00 89 1014.5
20260507040303 6 0 0.0 0.0 0.00 0.00 0.00 90 1014.6
20260507040003 6 0 0.0 0.0 0.00 0.00 0.00 90 1014.5
20260507035703 6 0 0.0 0.0 0.00 0.00 0.00 90 1014.5
20260507035403 6 0 0.0 0.0 0.00 0.00 0.00 90 1014.5
20260507035103 6 0 0.0 0.0 0.00 0.00 0.00 90 1014.5
20260507034804 6 0 0.0 0.0 0.00 0.00 0.00 90 1014.6
20260507034503 6 0 0.0 0.0 0.00 0.00 0.00 90 1014.6
20260507034203 6 0 0.0 0.0 0.00 0.00 0.00 89 1014.5
20260507033903 6 0 0.0 0.0 0.00 0.00 0.00 89 1014.6
20260507033603 6 0 0.0 0.0 0.00 0.00 0.00 89 1014.5
20260507033303 6 0 0.0 0.0 0.00 0.00 0.00 89 1014.6
20260507033003 6 0 0.0 0.0 0.00 0.00 0.00 89 1014.5
20260507032703 6 0 0.0 0.0 0.00 0.00 0.00 89 1014.6
20260507032403 6 0 0.0 0.0 0.00 0.00 0.00 89 1014.6
20260507032103 6 0 0.0 0.0 0.00 0.00 0.00 89 1014.6
20260507031803 6 0 0.0 0.0 0.00 0.00 0.00 89 1014.7
20260507031503 6 0 0.0 0.0 0.00 0.00 0.00 89 1014.6
20260507031413 6 0 0.0 0.0 0.00 0.00 0.00 89 1014.7
20260507030904 6 0 0.0 0.0 0.00 0.00 0.00 89 1014.7
20260507030812 6 0 0.0 0.0 0.00 0.00 0.00 89 1014.7
20260507030303 6 0 0.0 0.0 0.00 0.00 0.00 89 1014.7
20260507030003 6 0 0.0 0.0 0.00 0.00 0.00 89 1014.8
20260507025703 6 0 0.0 0.0 0.00 0.00 0.00 89 1014.8
20260507025403 6 0 0.0 0.0 0.00 0.00 0.00 89 1014.7
20260507025103 6 0 0.0 0.0 0.00 0.00 0.00 88 1014.7
20260507024803 6 0 0.0 0.0 0.00 0.00 0.00 88 1014.7
20260507024503 6 0 0.0 0.0 0.00 0.00 0.00 88 1014.6
20260507024203 6 0 0.0 0.0 0.00 0.00 0.00 89 1014.5
20260507023903 6 0 0.0 0.0 0.00 0.00 0.00 89 1014.6
20260507023812 6 0 0.0 0.0 0.00 0.00 0.00 89 1014.6
20260507023303 6 0 0.0 0.0 0.00 0.00 0.00 88 1014.7
20260507023004 6 0 0.0 0.0 0.00 0.00 0.00 88 1014.7
20260507022913 6 0 0.0 0.0 0.00 0.00 0.00 88 1014.6
20260507022403 6 0 0.0 0.0 0.00 0.00 0.00 88 1014.7
20260507022103 6 0 0.0 0.0 0.00 0.00 0.00 88 1014.7
20260507021804 6 74 0.0 1.6 0.00 0.00 0.00 88 1014.7
20260507021503 6 74 0.0 1.6 0.00 0.00 0.00 88 1014.7
20260507021204 6 74 0.0 1.6 0.00 0.00 0.00 88 1014.6
20260507020903 6 0 0.0 0.0 0.00 0.00 0.00 88 1014.7
20260507020603 6 0 0.0 0.0 0.00 0.00 0.00 88 1014.7
20260507020303 6 0 0.0 0.0 0.00 0.00 0.00 88 1014.6
20260507020214 6 0 0.0 0.0 0.00 0.00 0.00 88 1014.6
20260507015703 6 0 0.0 0.0 0.00 0.00 0.00 88 1014.7
20260507015613 6 0 0.0 0.0 0.00 0.00 0.00 88 1014.7
20260507015103 6 0 0.0 0.0 0.00 0.00 0.00 88 1014.6
20260507014803 7 0 0.0 0.0 0.00 0.00 0.00 88 1014.7
20260507014713 6 0 0.0 0.0 0.00 0.00 0.00 88 1014.7
20260507014203 6 0 0.0 0.0 0.00 0.00 0.00 87 1014.7
20260507013903 7 74 0.0 1.6 0.00 0.00 0.00 87 1014.7
20260507013603 7 74 0.0 3.2 0.00 0.00 0.00 87 1014.6
20260507013303 7 72 0.0 3.2 0.00 0.00 0.00 87 1014.7
20260507013213 7 72 0.0 3.2 0.00 0.00 0.00 87 1014.7
20260507012915 7 72 0.0 3.2 0.00 0.00 0.00 87 1014.7
20260507012403 7 77 0.0 1.6 0.00 0.00 0.00 87 1014.7
20260507012313 7 77 0.0 1.6 0.00 0.00 0.00 87 1014.8
20260507011804 7 67 0.0 3.2 0.00 0.00 0.00 87 1014.8
20260507011503 7 65 0.0 3.2 0.00 0.00 0.00 87 1014.8
20260507011203 7 46 0.0 3.2 0.00 0.00 0.00 87 1014.8
20260507010603 7 60 0.0 1.6 0.00 0.00 0.00 87 1014.8
20260507010303 7 60 0.0 1.6 0.00 0.00 0.00 87 1014.8
20260507010003 7 60 0.0 1.6 0.00 0.00 0.00 87 1014.8
20260507005704 7 60 0.0 1.6 0.00 0.00 0.00 86 1014.7
20260507005403 7 60 0.0 1.6 0.00 0.00 0.00 86 1014.7
20260507005103 7 60 0.0 1.6 0.00 0.00 0.00 86 1014.7
20260507004803 7 74 0.0 1.6 0.00 0.00 0.00 86 1014.6
20260507004503 7 89 0.0 3.2 0.00 0.00 0.00 86 1014.7
20260507004203 7 90 0.0 3.2 0.00 0.00 0.00 86 1014.7
20260507003903 7 83 0.0 3.2 0.00 0.00 0.00 86 1014.7
20260507003603 7 72 0.0 1.6 0.00 0.00 0.00 86 1014.7
20260507003303 7 77 0.0 1.6 0.00 0.00 0.00 86 1014.7
20260507003003 7 81 0.0 1.6 0.00 0.00 0.00 86 1014.7
20260507002703 7 81 0.0 1.6 0.00 0.00 0.00 86 1014.8
20260507002613 7 81 0.0 1.6 0.00 0.00 0.00 86 1014.7
20260507002103 7 81 0.0 1.6 0.00 0.00 0.00 86 1014.8
20260507001803 7 81 0.0 1.6 0.00 0.00 0.00 86 1014.9
20260507001503 7 80 0.0 1.6 0.00 0.00 0.00 86 1014.8
20260507001203 7 79 0.0 1.6 0.00 0.00 0.00 86 1014.9
20260507000903 7 78 0.0 1.6 0.00 0.00 0.00 86 1014.9
20260507000603 7 78 0.0 1.6 0.00 0.00 0.00 86 1014.9
20260507000306 7 78 0.0 1.6 0.00 0.00 0.00 86 1014.9
20260507000003 7 78 0.0 1.6 0.00 0.00 0.00 86 1014.9
20260506235913 7 78 0.0 1.6 0.00 0.00 0.00 86 1014.9
20260506235403 7 79 0.0 1.6 0.00 0.00 0.00 85 1014.9
20260506235103 7 79 0.0 1.6 0.00 0.00 0.00 85 1014.9
20260506234803 7 79 0.0 1.6 0.00 0.00 0.00 85 1014.9
20260506234504 7 79 0.0 1.6 0.00 0.00 0.00 85 1014.9
20260506234203 7 79 0.0 1.6 0.00 0.00 0.00 85 1014.8
20260506233903 7 79 0.0 1.6 0.00 0.00 0.00 85 1014.9
20260506233603 7 77 0.0 1.6 0.00 0.00 0.00 85 1014.8
20260506233303 7 73 0.0 3.2 0.00 0.00 0.00 85 1014.8
20260506233003 7 74 0.0 3.2 0.00 0.00 0.00 85 1014.8
20260506232703 7 80 0.0 4.8 0.00 0.00 0.00 85 1014.8
20260506232403 7 81 0.0 4.8 0.00 0.00 0.00 85 1014.9
20260506232103 7 77 0.0 4.8 0.00 0.00 0.00 85 1014.8
20260506231803 7 74 0.0 4.8 0.00 0.00 0.00 84 1014.8
20260506231505 7 58 0.0 1.6 0.00 0.00 0.00 84 1014.8
20260506231413 7 59 0.0 1.6 0.00 0.00 0.00 84 1014.8
20260506230903 7 66 0.0 1.6 0.00 0.00 0.00 84 1014.7
20260506230603 7 66 0.0 1.6 0.00 0.00 0.00 84 1014.8
20260506230513 7 66 0.0 1.6 0.00 0.00 0.00 84 1014.8
20260506230004 7 66 0.0 1.6 0.00 0.00 0.00 83 1014.7
20260506225703 8 66 0.0 1.6 0.00 0.00 0.00 83 1014.7
20260506225403 8 77 0.0 6.4 0.00 0.00 0.00 83 1014.7
20260506225103 8 79 0.0 6.4 0.00 0.00 0.00 83 1014.6
20260506224803 8 79 0.0 6.4 0.00 0.00 0.00 83 1014.5
20260506224713 8 79 0.0 6.4 0.00 0.00 0.00 83 1014.6
20260506224203 8 68 0.0 3.2 0.00 0.00 0.00 82 1014.7
20260506223903 8 69 0.0 3.2 0.00 0.00 0.00 82 1014.6
20260506223604 8 77 0.0 4.8 0.00 0.00 0.00 82 1014.5
20260506223303 8 76 0.0 4.8 0.00 0.00 0.00 82 1014.6
20260506223003 8 78 0.0 6.4 0.00 0.00 0.00 81 1014.6
20260506222703 8 71 0.0 6.4 0.00 0.00 0.00 82 1014.5
20260506222403 8 74 0.0 6.4 0.00 0.00 0.00 81 1014.5
20260506222314 8 77 0.0 6.4 0.00 0.00 0.00 81 1014.5
20260506222013 8 75 0.0 3.2 0.00 0.00 0.00 81 1014.6
20260506221504 8 66 0.0 6.4 0.00 0.00 0.00 81 1014.6
20260506221203 8 60 0.0 6.4 0.00 0.00 0.00 80 1014.5
20260506221113 8 59 0.0 6.4 0.00 0.00 0.00 80 1014.5
20260506220603 8 70 0.0 4.8 0.00 0.00 0.00 80 1014.5
20260506220303 8 68 0.0 6.4 0.00 0.00 0.00 80 1014.5
20260506220003 8 70 0.0 6.4 0.00 0.00 0.00 80 1014.5
20260506215703 8 70 0.0 6.4 0.00 0.00 0.00 80 1014.6
20260506215403 8 78 0.0 6.4 0.00 0.00 0.00 80 1014.5
20260506215103 8 88 0.0 6.4 0.00 0.00 0.00 79 1014.5
20260506214803 8 83 0.0 6.4 0.00 0.00 0.00 79 1014.4
20260506214504 8 82 0.0 6.4 0.00 0.00 0.00 79 1014.5
20260506214203 8 72 0.0 1.6 0.00 0.00 0.00 79 1014.4
20260506213903 8 74 0.0 1.6 0.00 0.00 0.00 79 1014.4
20260506213603 8 81 0.0 3.2 0.00 0.00 0.00 79 1014.4
20260506213303 8 83 0.0 3.2 0.00 0.00 0.00 79 1014.4
20260506213003 8 84 0.0 3.2 0.00 0.00 0.00 78 1014.3
20260506212703 8 90 0.0 3.2 0.00 0.00 0.00 79 1014.3
20260506212403 8 110 0.0 3.2 0.00 0.00 0.00 78 1014.3
20260506212103 8 107 0.0 3.2 0.00 0.00 0.00 78 1014.3
20260506211804 8 105 0.0 3.2 0.00 0.00 0.00 78 1014.3
20260506211713 8 105 0.0 3.2 0.00 0.00 0.00 78 1014.2
20260506211203 8 100 0.0 1.6 0.00 0.00 0.00 78 1014.3
20260506211112 8 100 0.0 1.6 0.00 0.00 0.00 78 1014.3
20260506210603 8 121 0.0 1.6 0.00 0.00 0.00 77 1014.3
20260506210303 8 91 0.0 4.8 0.00 0.00 0.00 77 1014.1
20260506210003 8 89 0.0 4.8 0.00 0.00 0.00 76 1014.2
20260506205703 8 82 0.0 4.8 0.00 0.00 0.00 76 1014.2
20260506205403 8 71 0.0 3.2 0.00 0.00 0.00 76 1014.2
20260506205103 8 69 0.0 3.2 0.00 0.00 0.00 76 1014.1
20260506204803 8 68 0.0 3.2 0.00 0.00 0.00 75 1014.1
20260506204503 8 76 0.0 3.2 0.00 0.00 0.00 75 1014.2
20260506204203 8 77 0.0 3.2 0.00 0.00 0.00 75 1014.1
20260506203903 8 80 0.0 3.2 0.00 0.00 0.00 75 1014.1
20260506203603 8 87 0.0 3.2 0.00 0.00 0.00 74 1014.1
20260506203303 9 64 0.0 1.6 0.00 0.00 0.00 75 1014.0
20260506203214 9 43 0.0 1.6 0.00 0.00 0.00 75 1014.0
20260506202703 9 15 0.0 1.6 0.00 0.00 0.00 74 1013.9
20260506202403 9 55 0.0 1.6 0.00 0.00 0.00 74 1013.9
20260506202103 9 69 0.0 1.6 0.00 0.00 0.00 73 1013.9
20260506201803 9 69 0.0 1.6 0.00 0.00 0.00 73 1014.0
20260506201504 9 75 0.0 1.6 0.00 0.00 0.00 73 1013.9
20260506201203 9 73 0.0 4.8 0.00 0.00 0.00 72 1013.9
20260506200903 9 76 0.0 4.8 0.00 0.00 0.00 71 1013.9
20260506200603 10 75 0.0 4.8 0.00 0.00 0.00 71 1013.9
20260506200303 10 64 0.0 4.8 0.00 0.00 0.00 70 1013.8
20260506200213 10 70 0.0 1.6 0.00 0.00 0.00 70 1013.8
20260506195913 10 49 0.0 1.6 0.00 0.00 0.00 70 1013.8
20260506195403 10 73 0.0 1.6 0.00 0.00 0.00 69 1013.7
20260506195103 10 82 0.0 3.2 0.00 0.00 0.00 69 1013.7
20260506194803 10 80 0.0 3.2 0.00 0.00 0.00 69 1013.7
20260506194712 10 79 0.0 3.2 0.00 0.00 0.00 69 1013.6
20260506194203 10 61 0.0 4.8 0.00 0.00 0.00 70 1013.6
20260506194114 10 61 0.0 4.8 0.00 0.00 0.00 69 1013.6
20260506193603 10 58 0.0 4.8 0.00 0.00 0.00 71 1013.6
20260506193303 10 61 0.0 4.8 0.00 0.00 0.00 70 1013.5
20260506193213 10 0 0.0 0.0 0.00 0.00 0.00 69 1013.6
20260506192703 10 0 0.0 0.0 0.00 0.00 0.00 66 1013.6
20260506192403 10 81 0.0 1.6 0.00 0.00 0.00 66 1013.5
20260506192312 10 81 0.0 1.6 0.00 0.00 0.00 66 1013.5
20260506192012 10 81 0.0 1.6 0.00 0.00 0.00 67 1013.6
20260506191203 10 0 0.0 0.0 0.00 0.00 0.00 67 1013.6
20260506191114 11 0 0.0 0.0 0.00 0.00 0.00 68 1013.5
20260506190603 11 0 0.0 0.0 0.00 0.00 0.00 69 1013.4
20260506190303 11 81 0.0 1.6 0.00 0.00 0.00 67 1013.4
20260506190004 11 81 0.0 1.6 0.00 0.00 0.00 66 1013.4
20260506185913 11 81 0.0 1.6 0.00 0.00 0.00 66 1013.5
20260506185615 11 66 0.0 1.6 0.00 0.00 0.00 65 1013.3
20260506185104 11 54 0.0 4.8 0.00 0.00 0.00 64 1013.3
20260506184803 11 55 0.0 4.8 0.00 0.00 0.00 63 1013.4
20260506184503 11 70 0.0 4.8 0.00 0.00 0.00 63 1013.3
20260506184203 11 75 0.0 6.4 0.00 0.00 0.00 63 1013.2
20260506183903 11 78 0.0 6.4 0.00 0.00 0.00 61 1013.3
20260506183603 11 78 1.6 6.4 0.00 0.00 0.00 60 1013.3
20260506183303 11 76 0.0 4.8 0.00 0.00 0.00 60 1013.3
20260506183003 11 72 0.0 4.8 0.00 0.00 0.00 60 1013.3
20260506182913 12 72 0.0 4.8 0.00 0.00 0.00 59 1013.3
20260506182612 12 45 0.0 1.6 0.00 0.00 0.00 61 1013.3
20260506182103 12 39 0.0 3.2 0.00 0.00 0.00 60 1013.2
20260506181803 12 39 0.0 3.2 0.00 0.00 0.00 62 1013.3
20260506181503 12 44 0.0 3.2 0.00 0.00 0.00 60 1013.2
20260506181203 12 51 0.0 3.2 0.00 0.00 0.00 59 1013.2
20260506180903 12 63 0.0 1.6 0.00 0.00 0.00 59 1013.2
20260506180813 12 63 0.0 1.6 0.00 0.00 0.00 59 1013.2
20260506180303 12 54 0.0 3.2 0.00 0.00 0.00 61 1013.2
20260506180004 12 53 0.0 3.2 0.00 0.00 0.00 61 1013.1
20260506175912 12 53 0.0 3.2 0.00 0.00 0.00 61 1013.1
20260506175403 12 53 0.0 3.2 0.00 0.00 0.00 57 1013.2
20260506175103 12 52 0.0 1.6 0.00 0.00 0.00 59 1013.0
20260506174804 12 59 0.0 3.2 0.00 0.00 0.00 60 1013.1
20260506174714 12 59 0.0 3.2 0.00 0.00 0.00 60 1013.1
20260506174203 12 65 0.0 3.2 0.00 0.00 0.00 57 1013.1
20260506173904 12 70 0.0 3.2 0.00 0.00 0.00 58 1013.2
20260506173603 12 94 0.0 1.6 0.00 0.00 0.00 57 1013.2
20260506173303 13 94 0.0 1.6 0.00 0.00 0.00 57 1013.1
20260506173003 13 0 0.0 0.0 0.00 0.00 0.00 61 1013.0
20260506172912 13 0 0.0 0.0 0.00 0.00 0.00 61 1013.0
20260506172614 13 94 0.0 1.6 0.00 0.00 0.00 62 1013.1
20260506172103 13 94 0.0 1.6 0.00 0.00 0.00 63 1013.1
20260506172013 12 94 0.0 1.6 0.00 0.00 0.00 61 1013.1